Regional Weather Roundup
Issued by NWS

Home | Current Version | Previous Version | Graphics & Text | Print | Product List | Glossary On
Versions: 1 2 3 4 5 6 7 8 9 10 11 12 13 14 15 16 17 18 19 20 21 22 23 24 25 26 27 28 29 30 31 32 33 34 35 36 37 38 39 40 41 42 43 44 45 46 47 48 49 50
914
ASUS45 KCYS 261210
RWRWY

WYOMING REGIONAL WEATHER ROUNDUP
NATIONAL WEATHER SERVICE CHEYENNE WY
600 AM MDT MON JUN 26 2017

NOTE:  "FAIR" INDICATES FEW OR NO CLOUDS BELOW 12,000 FEET
WITH NO SIGNIFICANT WEATHER AND/OR OBSTRUCTIONS TO VISIBILITY.

WYZ001-261300-
YELLOWSTONE NATIONAL PARK

CITY           SKY/WX    TMP DP  RH WIND       PRES   REMARKS
LK YELLOWSTONE   N/A     34  33  96 CALM      30.42S
6HR MIN TEMP:  34; 6HR MAX TEMP:  45;

W YELLOWSTONE  NOT AVBL

$$
WYZ002>013-054>058-071-098>099-261300-
NORTHERN WYOMING

CITY           SKY/WX    TMP DP  RH WIND       PRES   REMARKS
JACKSON        FAIR      41  36  81 CALM      30.34S
CODY           FAIR      51  36  56 CALM      30.24S
GREYBULL       FAIR      50  36  58 CALM      30.18F
6HR MIN TEMP:  50; 6HR MAX TEMP:  67;

WORLAND        FAIR      52  36  54 SE5       30.20S
6HR MIN TEMP:  48; 6HR MAX TEMP:  65;

SHERIDAN       FAIR      44  38  79 CALM      30.19S
6HR MIN TEMP:  42; 6HR MAX TEMP:  53;

BUFFALO        FAIR      53  37  54 SW9       30.23F
6HR MIN TEMP:  50; 6HR MAX TEMP:  57;

GILLETTE       FAIR      54  32  43 S16       30.22S
6HR MIN TEMP:  43; 6HR MAX TEMP:  54;

NEWCASTLE      FAIR      45  32  61 CALM      30.28S

$$
WYZ014>020-022>026-101>103-261300-
CENTRAL WYOMING

CITY           SKY/WX    TMP DP  RH WIND       PRES   REMARKS
BIG PINEY      FAIR      40  34  79 NE3       30.38S
6HR MIN TEMP:  38; 6HR MAX TEMP:  54;

PINEDALE       FAIR      41  37  87 NW6       30.39S
DUBOIS         FAIR      41  34  75 NW8       30.39S
LANDER         FAIR      50  35  56 SW3       30.29S
6HR MIN TEMP:  50; 6HR MAX TEMP:  63;

RIVERTON       FAIR      47  38  71 NW9       30.29R
6HR MIN TEMP:  47; 6HR MAX TEMP:  63;

CASPER         FAIR      43  36  76 NW3       30.28S
6HR MIN TEMP:  40; 6HR MAX TEMP:  53;

DOUGLAS        FAIR      44  36  73 CALM      30.28S
6HR MIN TEMP:  42; 6HR MAX TEMP:  53;


$$
WYZ021-027>030-104>119-261300-
SOUTHERN WYOMING

CITY           SKY/WX    TMP DP  RH WIND       PRES   REMARKS
EVANSTON       FAIR      55  32  41 E8        30.33S
6HR MIN TEMP:  52; 6HR MAX TEMP:  66;

KEMMERER         N/A     50  32  50 N13       30.36S
FORT BRIDGER   FAIR      50  34  54 NW5       30.37S
ROCK SPRINGS   FAIR      52  27  38 E6        30.34R
6HR MIN TEMP:  51; 6HR MAX TEMP:  61;

DIXON          FAIR      45  29  54 NE6       30.36R
RAWLINS        FAIR      43  33  68 N5        30.36R
6HR MIN TEMP:  41; 6HR MAX TEMP:  55;

SARATOGA       FAIR      45  34  65 E6        30.38R
LARAMIE        FAIR      40  38  93 CALM      30.38R
6HR MIN TEMP:  39; 6HR MAX TEMP:  51;

CHEYENNE       FAIR      51  46  83 NW5       30.33R
6HR MIN TEMP:  50; 6HR MAX TEMP:  55;

TORRINGTON     FAIR      49  38  65 W5        30.24R
6HR MIN TEMP:  48; 6HR MAX TEMP:  60;

PINE BLUFFS    FAIR      46  46 100 W5        30.30R

$$




USA.gov is the U.S. government's official web portal to all federal, state and local government web resources and services.